Location: �bnet
(46.9957°N, 8.4908°E)
Time: 01:08:06
(UTC+00:00)

USA 245 - Pass Details

Date: 11 May 2021
Orbit: 265 x 982 km, 97.9° (Epoch: 13 June)

Event Time Altitude Azimuth Distance (km) Brightness Sun altitude
Exits shadow 19:45:40 11° 96° (E) 1,020 4.2 -8.8°
Maximum altitude 19:46:40 14° 67° (ENE) 906 4.2 -8.9°
Drops below altitude 10° 19:47:56 10° 33° (NNE) 1,086 4.9 -9.1°
Sets 19:50:18 0° 4° (N) 1,940 6.7 -9.4°
